Flag for Syria Weather past 2 weeks in Aleppo, Syria

Now
74 °F

Partly sunny.


Feels Like: 77 °F
Forecast: 54 / 80 °F
Wind: 7 mph from West

Location: Iskenderun

Current Time: Apr 26, 2015 at 7:11:06 PM

Latest Report: Apr 26, 2015 at 6:00 PM


Visibility: 13 mi

Pressure: 29.96 "Hg

Humidity: 28%

Dew point: 39 °F

Location of AleppoLocation

Historic Weather in Aleppo — Graph

°F

Aleppo temperature yesterday

Maximum temperature yesterday: 68 °F (at 5:00 PM)
Minimum temperature yesterday: 57 °F (at 6:00 AM)
Average temperature yesterday: 63 °F

Past Weeks' High & Low Weather Summary

 TemperatureHumidityPressure
High82 °F (Apr 26, 4:00 PM)86% (Apr 22, 11:00 PM)30.26 "Hg (Apr 22, 11:00 PM)
Low51 °F (Apr 23, 11:00 PM)18% (Apr 26, 4:00 PM)29.69 "Hg (Apr 21, 5:00 PM)
Average63 °F55%29.99 "Hg
* Reported Apr 11 5:00 PM — Apr 26 5:00 PM, Aleppo, Weather by CustomWeather, © 2015

Note: Actual official high and low records may vary slightly from our data, if they occured in-between our weather recording intervals... More about our weather records

Advertising

Aleppo weather history for previous 24 hours

 ConditionsComfort  
Time TempWeatherWind HumidityBarometerVisibility
5:00 PM
Sun, Apr 26
76 °FPartly sunny.9 mph32%29.96 "Hg12 mi
4:00 PM82 °FScattered clouds.5 mph18%29.96 "Hg12 mi
3:00 PM78 °FPassing clouds.2 mph25%29.97 "Hg12 mi
2:00 PM74 °FScattered clouds.5 mph41%29.99 "Hg12 mi
1:00 PM73 °FScattered clouds.6 mph57%30.02 "Hg9 mi
12:00 PM71 °FPassing clouds.8 mph60%30.04 "Hg9 mi
11:00 AM69 °FPassing clouds.8 mph61%30.06 "Hg9 mi
10:00 AM68 °FPassing clouds.10 mph62%30.06 "Hg9 mi
9:00 AM67 °FPassing clouds.9 mph63%30.06 "Hg9 mi
8:00 AM65 °FScattered clouds.9 mph64%30.07 "Hg12 mi
7:00 AM61 °FScattered clouds.2 mph57%30.07 "Hg12 mi
6:00 AM59 °FScattered clouds.1 mph58%30.07 "Hg12 mi
5:00 AM61 °FClear.No wind56%30.07 "Hg12 mi
4:00 AM60 °FClear.No wind56%30.08 "Hg12 mi
3:00 AM62 °FClear.1 mph53%30.10 "Hg12 mi
2:00 AM62 °FClear.1 mph53%30.11 "Hg12 mi
1:00 AM63 °FClear.1 mph54%30.13 "Hg12 mi
12:00 AM63 °FClear.1 mph53%30.14 "Hg12 mi
11:00 PM
Sat, Apr 25
63 °FClear.No wind55%30.16 "Hg12 mi
10:00 PM64 °FClear.No wind50%30.16 "Hg12 mi
9:00 PM65 °FOvercast.No wind45%30.15 "Hg12 mi
8:00 PM66 °FOvercast.No wind47%30.15 "Hg12 mi
7:00 PM67 °FPartly sunny.No wind37%30.14 "Hg12 mi
Weather by CustomWeather, © 2015

See weather overviewHow to use our weather pages